| time (UTC) | temp C | wind direction | speed KPH | gust KPH | rain 1hr cm | rain 24hr cm | rain mn cm | humidity % | barometer mb |
| 20260505204525 | 27 | 245 | 11.3 | 14.5 | 0.00 | 0.00 | 0.00 | 31 | 1017.1 |
| 20260505203530 | 27 | 244 | 14.5 | 19.3 | 0.00 | 0.00 | 0.00 | 30 | 1017.0 |
| 20260505202518 | 28 | 245 | 14.5 | 24.1 | 0.00 | 0.00 | 0.00 | 28 | 1017.0 |
| 20260505201523 | 28 | 264 | 12.9 | 14.5 | 0.00 | 0.00 | 0.00 | 29 | 1017.1 |
| 20260505200528 | 27 | 282 | 12.9 | 22.5 | 0.00 | 0.00 | 0.00 | 31 | 1017.2 |
| 20260505195517 | 28 | 252 | 9.7 | 16.1 | 0.00 | 0.00 | 0.00 | 30 | 1017.5 |
| 20260505194522 | 28 | 254 | 8.0 | 14.5 | 0.00 | 0.00 | 0.00 | 30 | 1017.7 |
| 20260505193527 | 28 | 254 | 14.5 | 19.3 | 0.00 | 0.00 | 0.00 | 30 | 1017.8 |
| 20260505192515 | 28 | 269 | 11.3 | 19.3 | 0.00 | 0.00 | 0.00 | 31 | 1017.9 |
| 20260505191521 | 27 | 237 | 12.9 | 19.3 | 0.00 | 0.00 | 0.00 | 31 | 1018.1 |
| 20260505190606 | 28 | 236 | 9.7 | 14.5 | 0.00 | 0.00 | 0.00 | 31 | 1018.2 |
| 20260505185525 | 28 | 253 | 14.5 | 20.9 | 0.00 | 0.00 | 0.00 | 30 | 1018.5 |
| 20260505184519 | 28 | 256 | 14.5 | 20.9 | 0.00 | 0.00 | 0.00 | 29 | 1018.9 |
| 20260505183524 | 27 | 245 | 11.3 | 17.7 | 0.00 | 0.00 | 0.00 | 31 | 1018.7 |
| 20260505182524 | 28 | 274 | 14.5 | 24.1 | 0.00 | 0.00 | 0.00 | 29 | 1018.8 |
| 20260505181517 | 28 | 249 | 9.7 | 12.9 | 0.00 | 0.00 | 0.00 | 31 | 1018.8 |
| 20260505180523 | 28 | 303 | 9.7 | 17.7 | 0.00 | 0.00 | 0.00 | 32 | 1018.8 |
| 20260505175522 | 27 | 264 | 9.7 | 16.1 | 0.00 | 0.00 | 0.00 | 33 | 1018.9 |
| 20260505174516 | 27 | 261 | 12.9 | 17.7 | 0.00 | 0.00 | 0.00 | 32 | 1018.9 |
| 20260505173521 | 27 | 233 | 11.3 | 17.7 | 0.00 | 0.00 | 0.00 | 32 | 1019.1 |
| 20260505172520 | 26 | 220 | 11.3 | 16.1 | 0.00 | 0.00 | 0.00 | 33 | 1019.2 |
| 20260505171520 | 27 | 243 | 11.3 | 16.1 | 0.00 | 0.00 | 0.00 | 32 | 1019.3 |
| 20260505170519 | 26 | 263 | 11.3 | 16.1 | 0.00 | 0.00 | 0.00 | 32 | 1019.3 |
| 20260505165519 | 26 | 271 | 14.5 | 19.3 | 0.00 | 0.00 | 0.00 | 31 | 1019.4 |
| 20260505164518 | 26 | 241 | 14.5 | 19.3 | 0.00 | 0.00 | 0.00 | 33 | 1019.6 |
| 20260505163518 | 26 | 242 | 11.3 | 17.7 | 0.00 | 0.00 | 0.00 | 34 | 1019.7 |
| 20260505162518 | 26 | 263 | 11.3 | 16.1 | 0.00 | 0.00 | 0.00 | 36 | 1019.7 |
| 20260505161517 | 26 | 243 | 9.7 | 16.1 | 0.00 | 0.00 | 0.00 | 38 | 1019.8 |
| 20260505160517 | 26 | 266 | 9.7 | 16.1 | 0.00 | 0.00 | 0.00 | 38 | 1019.8 |
| 20260505152515 | 24 | 300 | 6.4 | 11.3 | 0.00 | 0.00 | 0.00 | 44 | 1020.0 |
| 20260505151526 | 24 | 225 | 9.7 | 17.7 | 0.00 | 0.00 | 0.00 | 45 | 1020.0 |
| 20260505150532 | 23 | 236 | 11.3 | 22.5 | 0.00 | 0.00 | 0.00 | 45 | 1020.1 |
| 20260505140549 | 21 | 240 | 11.3 | 16.1 | 0.00 | 0.00 | 0.00 | 55 | 1019.9 |
| 20260505124519 | 17 | 265 | 9.7 | 14.5 | 0.00 | 0.00 | 0.00 | 69 | 1019.8 |
| 20260505123524 | 16 | 235 | 6.4 | 9.7 | 0.00 | 0.00 | 0.00 | 73 | 1019.9 |
| 20260505122530 | 15 | 263 | 8.0 | 12.9 | 0.00 | 0.00 | 0.00 | 77 | 1019.9 |
| 20260505121518 | 14 | 267 | 6.4 | 8.0 | 0.00 | 0.00 | 0.00 | 80 | 1019.8 |
| 20260505120543 | 13 | 258 | 6.4 | 9.7 | 0.00 | 0.00 | 0.00 | 83 | 1019.8 |
| 20260505115529 | 12 | 257 | 4.8 | 8.0 | 0.00 | 0.00 | 0.00 | 89 | 1019.7 |
| 20260505114516 | 11 | 274 | 3.2 | 4.8 | 0.00 | 0.00 | 0.00 | 93 | 1019.7 |
| 20260505113521 | 10 | 298 | 1.6 | 3.2 | 0.00 | 0.00 | 0.00 | 94 | 1019.6 |
| 20260505112527 | 10 | 0.0 | 0.0 | 0.00 | 0.00 | 0.00 | 93 | 1019.7 | |
| 20260505111533 | 10 | 0.0 | 0.0 | 0.00 | 0.00 | 0.00 | 95 | 1019.7 | |
| 20260505110601 | 10 | 0.0 | 0.0 | 0.00 | 0.00 | 0.00 | 92 | 1019.7 | |
| 20260505101529 | 11 | 0.0 | 0.0 | 0.00 | 0.00 | 0.00 | 85 | 1019.2 | |
| 20260505100517 | 11 | 0.0 | 0.0 | 0.00 | 0.00 | 0.00 | 83 | 1019.2 | |
| 20260505095523 | 11 | 266 | 3.2 | 6.4 | 0.00 | 0.00 | 0.00 | 83 | 1018.9 |
| 20260505094528 | 11 | 256 | 3.2 | 4.8 | 0.00 | 0.00 | 0.00 | 83 | 1018.8 |
| 20260505093516 | 11 | 266 | 3.2 | 6.4 | 0.00 | 0.00 | 0.00 | 83 | 1018.8 |
| 20260505092521 | 11 | 262 | 4.8 | 8.0 | 0.00 | 0.00 | 0.00 | 83 | 1018.6 |
| 20260505091526 | 11 | 300 | 1.6 | 3.2 | 0.00 | 0.00 | 0.00 | 82 | 1018.4 |
| 20260505090532 | 11 | 279 | 1.6 | 4.8 | 0.00 | 0.00 | 0.00 | 81 | 1018.5 |
| 20260505085519 | 12 | 0.0 | 0.0 | 0.00 | 0.00 | 0.00 | 79 | 1018.4 | |
| 20260505084526 | 12 | 274 | 3.2 | 4.8 | 0.00 | 0.00 | 0.00 | 78 | 1018.4 |
| 20260505083531 | 12 | 270 | 4.8 | 6.4 | 0.00 | 0.00 | 0.00 | 77 | 1018.3 |
| 20260505082518 | 12 | 273 | 4.8 | 6.4 | 0.00 | 0.00 | 0.00 | 76 | 1018.4 |
| 20260505081524 | 12 | 263 | 4.8 | 4.8 | 0.00 | 0.00 | 0.00 | 76 | 1018.4 |
| 20260505080529 | 12 | 273 | 4.8 | 4.8 | 0.00 | 0.00 | 0.00 | 75 | 1018.2 |
| 20260505075516 | 13 | 271 | 3.2 | 4.8 | 0.00 | 0.00 | 0.00 | 75 | 1018.2 |
| 20260505074523 | 13 | 268 | 3.2 | 4.8 | 0.00 | 0.00 | 0.00 | 75 | 1018.2 |
| 20260505073548 | 13 | 279 | 3.2 | 4.8 | 0.00 | 0.00 | 0.00 | 73 | 1018.1 |
| 20260505072555 | 13 | 266 | 4.8 | 4.8 | 0.00 | 0.00 | 0.00 | 72 | 1018.0 |
| 20260505071520 | 13 | 263 | 3.2 | 4.8 | 0.00 | 0.00 | 0.00 | 71 | 1018.0 |
| 20260505070707 | 13 | 260 | 4.8 | 6.4 | 0.00 | 0.00 | 0.00 | 70 | 1018.0 |
| 20260505065532 | 14 | 275 | 4.8 | 6.4 | 0.00 | 0.00 | 0.00 | 69 | 1018.1 |
| 20260505064519 | 14 | 264 | 3.2 | 6.4 | 0.00 | 0.00 | 0.00 | 68 | 1018.1 |
| 20260505063545 | 15 | 279 | 3.2 | 6.4 | 0.00 | 0.00 | 0.00 | 66 | 1018.0 |
| 20260505062530 | 15 | 271 | 6.4 | 9.7 | 0.00 | 0.00 | 0.00 | 65 | 1018.0 |
| 20260505061538 | 15 | 270 | 6.4 | 9.7 | 0.00 | 0.00 | 0.00 | 64 | 1018.0 |
| 20260505060544 | 15 | 284 | 6.4 | 8.0 | 0.00 | 0.00 | 0.00 | 63 | 1018.0 |
| 20260505055536 | 15 | 262 | 6.4 | 9.7 | 0.00 | 0.00 | 0.00 | 62 | 1018.0 |
| 20260505054521 | 15 | 276 | 6.4 | 8.0 | 0.00 | 0.00 | 0.00 | 61 | 1018.0 |
| 20260505053548 | 16 | 258 | 4.8 | 8.0 | 0.00 | 0.00 | 0.00 | 59 | 1018.2 |
| 20260505052532 | 16 | 267 | 4.8 | 8.0 | 0.00 | 0.00 | 0.00 | 58 | 1018.3 |
| 20260505051520 | 16 | 260 | 6.4 | 9.7 | 0.00 | 0.00 | 0.00 | 57 | 1018.3 |
| 20260505050545 | 16 | 275 | 4.8 | 8.0 | 0.00 | 0.00 | 0.00 | 56 | 1018.2 |
| 20260505041517 | 17 | 280 | 6.4 | 9.7 | 0.00 | 0.00 | 0.00 | 48 | 1018.2 |
| 20260505040543 | 17 | 260 | 6.4 | 9.7 | 0.00 | 0.00 | 0.00 | 45 | 1018.1 |
| 20260505035528 | 17 | 264 | 6.4 | 11.3 | 0.00 | 0.00 | 0.00 | 46 | 1018.2 |
| 20260505034515 | 17 | 243 | 4.8 | 9.7 | 0.00 | 0.00 | 0.00 | 45 | 1018.2 |
| 20260505033521 | 16 | 258 | 4.8 | 6.4 | 0.00 | 0.00 | 0.00 | 46 | 1018.2 |
| 20260505032526 | 16 | 267 | 4.8 | 8.0 | 0.00 | 0.00 | 0.00 | 46 | 1018.2 |
| 20260505031553 | 16 | 263 | 4.8 | 9.7 | 0.00 | 0.00 | 0.00 | 46 | 1018.2 |
| 20260505030519 | 15 | 278 | 3.2 | 4.8 | 0.00 | 0.00 | 0.00 | 47 | 1018.3 |
| 20260505025525 | 15 | 300 | 1.6 | 3.2 | 0.00 | 0.00 | 0.00 | 47 | 1018.2 |
| 20260505024530 | 15 | 274 | 0.0 | 4.8 | 0.00 | 0.00 | 0.00 | 47 | 1018.3 |
| 20260505023517 | 15 | 0.0 | 0.0 | 0.00 | 0.00 | 0.00 | 46 | 1018.2 | |
| 20260505022523 | 15 | 0.0 | 0.0 | 0.00 | 0.00 | 0.00 | 45 | 1018.1 | |
| 20260505021529 | 15 | 0.0 | 0.0 | 0.00 | 0.00 | 0.00 | 45 | 1018.0 | |
| 20260505020516 | 16 | 0.0 | 0.0 | 0.00 | 0.00 | 0.00 | 45 | 1017.9 | |
| 20260505015542 | 16 | 0.0 | 0.0 | 0.00 | 0.00 | 0.00 | 44 | 1017.9 | |
| 20260505014527 | 17 | 0.0 | 0.0 | 0.00 | 0.00 | 0.00 | 42 | 1017.7 | |
| 20260505013515 | 17 | 265 | 3.2 | 3.2 | 0.00 | 0.00 | 0.00 | 39 | 1017.5 |
| 20260505012520 | 17 | 0.0 | 0.0 | 0.00 | 0.00 | 0.00 | 41 | 1017.5 | |
| 20260505011525 | 17 | 278 | 3.2 | 4.8 | 0.00 | 0.00 | 0.00 | 41 | 1017.5 |
| 20260505010531 | 17 | 0.0 | 0.0 | 0.00 | 0.00 | 0.00 | 42 | 1017.3 | |
| 20260505005519 | 17 | 0.0 | 0.0 | 0.00 | 0.00 | 0.00 | 40 | 1017.2 | |
| 20260505004524 | 17 | 0.0 | 0.0 | 0.00 | 0.00 | 0.00 | 39 | 1017.1 | |
| 20260505003530 | 18 | 0.0 | 0.0 | 0.00 | 0.00 | 0.00 | 39 | 1017.0 | |
| 20260505002517 | 19 | 0.0 | 0.0 | 0.00 | 0.00 | 0.00 | 37 | 1016.9 | |
| 20260505001543 | 20 | 0.0 | 0.0 | 0.00 | 0.00 | 0.00 | 35 | 1016.8 | |
| 20260505000548 | 21 | 0.0 | 0.0 | 0.00 | 0.00 | 0.00 | 33 | 1016.7 | |
| 20260504235557 | 22 | 272 | 0.0 | 3.2 | 0.00 | 0.00 | 0.00 | 33 | 1016.7 |
| 20260504234521 | 22 | 270 | 0.0 | 3.2 | 0.00 | 0.00 | 0.00 | 32 | 1016.5 |
| 20260504233527 | 23 | 283 | 4.8 | 8.0 | 0.00 | 0.00 | 0.00 | 29 | 1016.4 |
| 20260504232526 | 24 | 270 | 0.0 | 3.2 | 0.00 | 0.00 | 0.00 | 28 | 1016.4 |
| 20260504231520 | 25 | 262 | 3.2 | 6.4 | 0.00 | 0.00 | 0.00 | 27 | 1016.4 |
| 20260504230547 | 25 | 262 | 3.2 | 4.8 | 0.00 | 0.00 | 0.00 | 25 | 1016.2 |
| 20260504225525 | 26 | 253 | 6.4 | 8.0 | 0.00 | 0.00 | 0.00 | 23 | 1016.4 |
| 20260504224518 | 26 | 243 | 8.0 | 16.1 | 0.00 | 0.00 | 0.00 | 23 | 1016.4 |
| 20260504223524 | 27 | 267 | 6.4 | 11.3 | 0.00 | 0.00 | 0.00 | 23 | 1016.5 |
| 20260504222523 | 27 | 263 | 8.0 | 14.5 | 0.00 | 0.00 | 0.00 | 22 | 1016.5 |
| 20260504221557 | 27 | 252 | 8.0 | 12.9 | 0.00 | 0.00 | 0.00 | 23 | 1016.5 |
| 20260504220523 | 27 | 263 | 8.0 | 9.7 | 0.00 | 0.00 | 0.00 | 23 | 1016.4 |
| 20260504215522 | 27 | 272 | 9.7 | 16.1 | 0.00 | 0.00 | 0.00 | 23 | 1016.5 |
| 20260504214516 | 27 | 268 | 8.0 | 11.3 | 0.00 | 0.00 | 0.00 | 23 | 1016.4 |
| 20260504213541 | 27 | 274 | 6.4 | 11.3 | 0.00 | 0.00 | 0.00 | 25 | 1016.5 |
| 20260504212520 | 27 | 249 | 8.0 | 11.3 | 0.00 | 0.00 | 0.00 | 24 | 1016.5 |
| 20260504211520 | 27 | 198 | 9.7 | 14.5 | 0.00 | 0.00 | 0.00 | 25 | 1016.5 |
| 20260504210519 | 27 | 335 | 4.8 | 8.0 | 0.00 | 0.00 | 0.00 | 25 | 1016.7 |
| 20260504205519 | 27 | 262 | 8.0 | 11.3 | 0.00 | 0.00 | 0.00 | 27 | 1016.7 |